Location: Pian di Sc�
(43.6333°N, 11.5500°E)
Time: 17:52:18
(UTC+00:00)

ARIANE 5 R/B - Pass Details

Date: 07 August 2020
Orbit: 749 x 794 km, 98.6° (Epoch: 18 September)

Event Time Altitude Azimuth Distance (km) Brightness Sun altitude
Rises 02:07:18 0° 14° (NNE) 3,295 6.8 -18.8°
Reaches altitude 10° 02:09:37 10° 15° (NNE) 2,366 5.9 -18.6°
Maximum altitude 02:14:52 86° 105° (ESE) 802 2.5 -17.9°
Enters shadow 02:18:04 25° 193° (SSW) 1,573 3.6 -17.5°
